#timestamp,LO_Frequency,Hit,StdDev 
1676340015.2,286047004.2,N
1676340035.1,286047004.7,N
1676340036.0,286047004.7,N
1676340055.8,286047004.8,N
1676340075.6,286047005.5,N
1676340095.5,286047005.8,N
1676340115.3,286047004.2,N
1676340135.1,286047001.4,N
1676340155.9,286047001.5,N
1676340175.7,286047003.1,N
1676340195.6,286047002.5,N
1676340215.4,286047000.0,N
1676340235.2,286047002.7,N
1676340255.1,286047002.4,N
1676340256.0,286047002.4,N
1676340275.8,286046999.7,N
1676340295.7,286047001.3,N
1676340315.5,286047003.7,N
1676340335.3,286047002.3,N
1676340355.2,286047001.7,N
1676340375.9,286047006.0,N
1676340395.7,286047002.9,N
1676340415.6,286047003.7,N
1676340435.4,286047005.9,Y
1676340455.3,286046998.6,P
1676340475.1,286046999.2,N
1676340476.0,286046999.2,N
1676340495.8,286046998.9,N
1676340515.7,286046999.5,N
1676340535.5,286046999.1,N
1676340555.3,286046996.9,N
1676340575.2,286046999.2,N
1676340595.0,286047000.9,N
1676340626.0,286047000.5,E
1676340635.9,286047000.0,N
1676340655.7,286046998.7,P
1676340675.5,286046998.2,N
1676340695.4,286047000.6,N
1676340715.2,286047011.9,Y
1676340735.1,286046998.1,P
1676340736.0,286046998.1,P
1676340755.8,286046996.7,P
1676340775.6,286046996.6,Y
1676340795.5,286046998.7,P
1676340815.3,286046998.7,P
1676340835.2,286047000.0,N
1676340855.9,286047001.2,N
1676340875.7,286046999.8,N
1676340895.6,286047000.3,N
1676340915.4,286046998.2,N
1676340935.2,286047002.8,N
1676340955.1,286047004.3,N
1676340956.0,286047004.3,N
1676340975.8,286047002.2,N
1676340995.7,286047002.1,N
1676341015.5,286047001.1,N
1676341035.3,286046998.8,N
1676341055.2,286046999.9,N
1676341075.0,286047000.3,N
1676341075.9,286047000.3,N
1676341095.8,286047002.7,N
1676341115.6,286047002.4,N
1676341135.4,286047000.2,N
1676341155.3,286047000.0,N
1676341175.1,286047002.6,N
1676341195.9,286047004.1,N
1676341215.7,286046999.8,N
1676341235.5,286047000.9,N
1676341255.4,286046998.4,N
1676341275.2,286046997.8,N
1676341295.0,286046997.9,N
1676341295.9,286046997.9,N
1676341315.8,286046995.6,N
1676341335.6,286046997.2,N
1676341355.5,286046997.1,N
1676341375.3,286047000.9,N
1676341395.2,286047000.3,N
1676341415.9,286046999.4,N
1676341435.7,286047001.2,N
1676341455.6,286047000.3,N
1676341475.4,286047001.0,N
1676341495.2,286047000.7,N
1676341515.1,286047001.0,N
1676341516.0,286047001.0,N
1676341535.8,286047002.8,N
1676341555.7,286047000.8,N
1676341575.5,286046996.7,N
1676341595.3,286046997.8,N
1676341615.2,286046997.9,N
1676341635.0,286046997.9,N
1676341635.9,286046997.9,N
1676341655.8,286046997.5,N
1676341675.6,286046997.7,N
1676341695.4,286047000.7,N
1676341715.3,286047002.4,N
1676341735.1,286047000.5,N
1676341755.9,286047002.1,N
1676341775.7,286047002.6,N
1676341795.5,286047004.3,N
1676341815.4,286047003.7,N
1676341835.2,286047004.3,N
1676341855.0,286047002.1,N
1676341855.9,286047002.1,N
1676341875.8,286047003.8,N
1676341895.6,286047003.1,N
1676341915.5,286047002.1,N
1676341935.3,286047002.8,N
1676341955.1,286047002.4,N
1676341975.9,286047001.4,N
1676341995.7,286047001.3,N
1676342015.5,286047002.8,N
1676342035.4,286047001.1,N
1676342055.2,286047001.0,N
1676342075.1,286046998.3,N
1676342076.0,286046998.3,N
1676342095.8,286046998.6,N
1676342115.6,286046997.2,N
1676342135.5,286046995.1,N
1676342155.3,286046995.0,N
1676342175.1,286046996.0,N
1676342195.9,286046997.9,N
1676342215.7,286046996.5,N
1676342235.6,286046999.5,N
1676342255.4,286046998.8,N
1676342275.2,286046997.4,N
1676342295.1,286046995.1,N
1676342296.0,286046995.1,N
1676342315.8,286046995.5,N
1676342335.6,286046995.2,N
1676342355.5,286046996.6,N
1676342375.3,286046998.4,N
1676342395.2,286046998.7,N
1676342415.9,286047000.9,N
1676342435.7,286047002.4,N
1676342455.6,286047000.3,N
1676342475.4,286047001.1,N
1676342495.2,286046998.8,N
1676342515.1,286046996.7,N
1676342516.0,286046996.7,N
1676342535.8,286046998.5,N
1676342555.7,286047000.5,N
1676342575.5,286047000.7,N
1676342595.3,286047001.0,N
1676342615.2,286046999.7,N
1676342635.0,286047002.1,N
1676342635.9,286047002.1,N
1676342655.7,286047000.4,N
1676342675.6,286047000.0,N
1676342695.4,286046998.7,N
1676342715.3,286046996.7,N
1676342735.1,286046997.5,N
1676342736.0,286046997.5,N
1676342755.8,286046997.6,N
1676342775.7,286046997.9,N
1676342795.5,286046997.3,N
1676342815.3,286046998.7,N
1676342835.2,286046997.1,N
1676342855.0,286046999.4,N
1676342855.9,286046999.4,N
1676342875.8,286046999.2,N
1676342895.6,286046995.2,N
1676342915.4,286046995.5,N
1676342935.3,286046995.3,N
1676342955.1,286046999.1,N
1676342975.9,286046998.5,N
1676342995.7,286046999.2,N
1676343015.5,286047000.0,N
1676343035.4,286047001.7,N
1676343055.2,286047000.1,N
1676343075.0,286047004.4,N
1676343075.9,286047004.4,N
1676343095.8,286047002.4,N
1676343115.6,286047002.5,N
1676343135.5,286047001.8,N
1676343155.3,286047002.1,N
1676343175.1,286047002.0,N
1676343195.9,286047002.2,N
1676343215.7,286046999.7,N
1676343235.5,286047002.7,N
1676343255.4,286047000.8,N
1676343275.2,286047000.7,N
1676343295.0,286047000.4,N
1676343296.0,286047000.4,N
1676343315.8,286047002.8,N
1676343335.6,286046999.8,N
1676343355.5,286047001.0,N
1676343375.3,286046998.9,N
1676343395.1,286047001.0,N
1676343415.9,286047000.7,N
1676343435.7,286047000.4,N
1676343455.5,286047002.3,N
1676343475.4,286047002.7,N
1676343495.2,286047002.2,N
1676343515.1,286047002.8,N
1676343516.0,286047002.8,N
1676343535.8,286047002.3,N
1676343555.6,286047000.9,N
1676343575.5,286047002.7,N
1676343595.3,286047001.7,N
